When you browse on this site, cookies collect data to enhance your experience and personalize the content and advertising you see.
Visit our Privacy Policy to learn more. By continuing to use the site, you agree to this use of cookies and data.
  • En España
  • Lista de países
  • Para 7 días
  • Temperatura del agua
  • El tiempo en el mapa
  • Informadores
  • user-avatar
    Iniciar sesión

    Tiempo cada hora Blonnaya

    Hoy, 31 Mayo, Domingo

    Tiempo Temperatura Precipitaciones Viento Presión Humedad
    00:00 +14°C° 0.7 mm 7 mps 741 mmHg 81%
    01:00 +12°C° 0.7 mm 7 mps 741 mmHg 86%
    02:00 +12°C° 0 mm 5 mps 742 mmHg 91%
    03:00 +12°C° 1.3 mm 5 mps 742 mmHg 92%
    04:00 +10°C° 1.3 mm 6 mps 742 mmHg 93%
    05:00 +10°C° 1.3 mm 7 mps 742 mmHg 95%
    06:00 +10°C° 1.3 mm 7 mps 742 mmHg 94%
    07:00 +10°C° 1.3 mm 7 mps 743 mmHg 93%
    08:00 +10°C° 0 mm 6 mps 743 mmHg 92%
    09:00 +11°C° 0.2 mm 6 mps 743 mmHg 87%
    10:00 +13°C° 0.2 mm 5 mps 743 mmHg 82%
    11:00 +14°C° 0.2 mm 5 mps 744 mmHg 77%
    12:00 +15°C° 0 mm 5 mps 744 mmHg 70%
    13:00 +16°C° 0 mm 6 mps 744 mmHg 63%
    14:00 +17°C° 0 mm 6 mps 745 mmHg 56%
    15:00 +16°C° 0.1 mm 6 mps 744 mmHg 60%
    16:00 +15°C° 0.1 mm 5 mps 744 mmHg 65%
    17:00 +14°C° 0.1 mm 5 mps 744 mmHg 69%
    18:00 +13°C° 0.1 mm 5 mps 745 mmHg 70%
    19:00 +12°C° 0.1 mm 4 mps 745 mmHg 72%
    20:00 +11°C° 0.1 mm 4 mps 746 mmHg 73%
    21:00 +10°C° 0 mm 4 mps 746 mmHg 73%
    22:00 +8°C° 0 mm 4 mps 746 mmHg 72%
    23:00 +6°C° 0 mm 4 mps 746 mmHg 72%

    Mañana, 1 Junio, Lunes

    Tiempo Temperatura Precipitaciones Viento Presión Humedad
    00:00 +6°C° 0 mm 4 mps 746 mmHg 73%
    01:00 +5°C° 0 mm 4 mps 746 mmHg 74%
    02:00 +5°C° 0 mm 4 mps 747 mmHg 75%
    03:00 +5°C° 0 mm 4 mps 746 mmHg 76%
    04:00 +3°C° 0 mm 5 mps 746 mmHg 77%
    05:00 +3°C° 0 mm 5 mps 745 mmHg 78%
    06:00 +5°C° 0 mm 5 mps 746 mmHg 75%
    07:00 +5°C° 0 mm 6 mps 746 mmHg 71%
    08:00 +7°C° 0 mm 6 mps 746 mmHg 67%
    09:00 +7°C° 0 mm 6 mps 746 mmHg 72%
    10:00 +7°C° 0 mm 6 mps 746 mmHg 77%
    11:00 +7°C° 0 mm 5 mps 746 mmHg 81%
    12:00 +7°C° 0 mm 6 mps 746 mmHg 79%
    13:00 +8°C° 0 mm 6 mps 745 mmHg 78%
    14:00 +8°C° 0 mm 6 mps 745 mmHg 76%
    15:00 +8°C° 0 mm 6 mps 745 mmHg 76%
    16:00 +8°C° 0 mm 6 mps 745 mmHg 77%
    17:00 +8°C° 0 mm 6 mps 744 mmHg 77%
    18:00 +8°C° 0.1 mm 6 mps 744 mmHg 79%
    19:00 +8°C° 0.1 mm 6 mps 744 mmHg 80%
    20:00 +8°C° 0.1 mm 6 mps 744 mmHg 81%
    21:00 +8°C° 0.2 mm 6 mps 743 mmHg 82%
    22:00 +8°C° 0.2 mm 7 mps 743 mmHg 83%
    23:00 +9°C° 0.2 mm 7 mps 742 mmHg 84%

    Pasado mañana, 2 Junio, Martes

    Tiempo Temperatura Precipitaciones Viento Presión Humedad
    00:00 +8°C° 1.4 mm 7 mps 742 mmHg 87%
    01:00 +8°C° 1.4 mm 7 mps 741 mmHg 89%
    02:00 +6°C° 1.4 mm 7 mps 741 mmHg 92%
    03:00 +6°C° 1.2 mm 8 mps 741 mmHg 93%
    04:00 +6°C° 1.2 mm 8 mps 740 mmHg 94%
    05:00 +6°C° 1.2 mm 8 mps 740 mmHg 94%
    06:00 +6°C° 1.3 mm 8 mps 740 mmHg 95%
    07:00 +8°C° 1.3 mm 7 mps 741 mmHg 95%
    08:00 +8°C° 1.3 mm 7 mps 741 mmHg 95%
    09:00 +8°C° 0.2 mm 7 mps 741 mmHg 94%
    10:00 +8°C° 0.2 mm 7 mps 741 mmHg 93%
    11:00 +9°C° 0.2 mm 7 mps 742 mmHg 92%
    12:00 +9°C° 0.3 mm 7 mps 742 mmHg 92%
    13:00 +9°C° 0.3 mm 7 mps 742 mmHg 93%
    14:00 +9°C° 0.3 mm 6 mps 742 mmHg 93%
    15:00 +9°C° 0.2 mm 6 mps 742 mmHg 93%
    16:00 +9°C° 0.2 mm 5 mps 742 mmHg 94%
    17:00 +9°C° 0.2 mm 5 mps 742 mmHg 95%
    18:00 +10°C° 0.2 mm 4 mps 742 mmHg 96%
    19:00 +10°C° 0.2 mm 4 mps 742 mmHg 96%
    20:00 +10°C° 0.2 mm 4 mps 742 mmHg 97%
    21:00 +10°C° 0.2 mm 3 mps 742 mmHg 97%
    22:00 +9°C° 0.2 mm 3 mps 742 mmHg 98%
    23:00 +9°C° 0.2 mm 2 mps 741 mmHg 98%

    3 Junio, Miércoles

    Tiempo Temperatura Precipitaciones Viento Presión Humedad
    00:00 +9°C° 0 mm 2 mps 741 mmHg 98%
    01:00 +8°C° 0 mm 2 mps 742 mmHg 98%
    02:00 +8°C° 0 mm 2 mps 742 mmHg 98%
    03:00 +8°C° 0 mm 2 mps 742 mmHg 97%
    04:00 +8°C° 0 mm 2 mps 742 mmHg 97%
    05:00 +8°C° 0 mm 2 mps 742 mmHg 96%
    06:00 +9°C° 0 mm 2 mps 742 mmHg 92%
    07:00 +12°C° 0 mm 2 mps 742 mmHg 87%
    08:00 +12°C° 0 mm 3 mps 742 mmHg 83%
    09:00 +14°C° 0 mm 3 mps 742 mmHg 75%
    10:00 +16°C° 0 mm 3 mps 742 mmHg 67%
    11:00 +17°C° 0 mm 4 mps 742 mmHg 59%
    12:00 +18°C° 0 mm 4 mps 742 mmHg 59%
    13:00 +18°C° 0 mm 4 mps 741 mmHg 58%
    14:00 +18°C° 0 mm 4 mps 741 mmHg 58%
    15:00 +18°C° 0.3 mm 4 mps 741 mmHg 65%
    16:00 +17°C° 0.3 mm 3 mps 741 mmHg 72%
    17:00 +17°C° 0.3 mm 3 mps 741 mmHg 80%
    18:00 +15°C° 0.5 mm 2 mps 741 mmHg 85%
    19:00 +14°C° 0.5 mm 2 mps 741 mmHg 90%
    20:00 +13°C° 0.5 mm 2 mps 741 mmHg 95%
    21:00 +13°C° 0.1 mm 1 mps 741 mmHg 95%
    22:00 +13°C° 0.1 mm 1 mps 741 mmHg 95%
    23:00 +12°C° 0.1 mm 1 mps 741 mmHg 95%

    4 Junio, Jueves

    Tiempo Temperatura Precipitaciones Viento Presión Humedad
    00:00 +12°C° 0 mm 1 mps 740 mmHg 95%
    01:00 +12°C° 0 mm 1 mps 740 mmHg 96%
    02:00 +11°C° 0 mm 1 mps 740 mmHg 96%
    03:00 +11°C° 0 mm 1 mps 740 mmHg 96%
    04:00 +11°C° 0 mm 1 mps 739 mmHg 96%
    05:00 +11°C° 0 mm 1 mps 739 mmHg 97%
    06:00 +12°C° 0 mm 1 mps 739 mmHg 92%
    07:00 +14°C° 0 mm 1 mps 739 mmHg 88%
    08:00 +15°C° 0 mm 1 mps 739 mmHg 84%
    09:00 +16°C° 0.3 mm 1 mps 739 mmHg 80%
    10:00 +17°C° 0.3 mm 2 mps 739 mmHg 77%
    11:00 +18°C° 0.3 mm 2 mps 739 mmHg 73%
    12:00 +17°C° 0.6 mm 2 mps 738 mmHg 75%
    13:00 +17°C° 0.6 mm 2 mps 738 mmHg 77%
    14:00 +17°C° 0.6 mm 3 mps 738 mmHg 79%
    15:00 +17°C° 0.5 mm 3 mps 738 mmHg 80%
    16:00 +17°C° 0.5 mm 3 mps 738 mmHg 80%
    17:00 +17°C° 0.5 mm 3 mps 737 mmHg 81%
    18:00 +16°C° 0.5 mm 3 mps 737 mmHg 85%
    19:00 +14°C° 0.5 mm 2 mps 737 mmHg 89%
    20:00 +13°C° 0.5 mm 2 mps 737 mmHg 93%
    21:00 +12°C° 0 mm 2 mps 737 mmHg 94%
    22:00 +10°C° 0 mm 2 mps 737 mmHg 94%
    23:00 +9°C° 0 mm 2 mps 737 mmHg 94%

    5 Junio, Viernes

    Tiempo Temperatura Precipitaciones Viento Presión Humedad
    00:00 +9°C° 0 mm 2 mps 737 mmHg 95%
    01:00 +9°C° 0 mm 2 mps 737 mmHg 96%
    02:00 +8°C° 0 mm 2 mps 737 mmHg 96%
    03:00 +8°C° 0 mm 3 mps 737 mmHg 97%
    04:00 +9°C° 0 mm 3 mps 737 mmHg 97%
    05:00 +9°C° 0 mm 3 mps 737 mmHg 97%
    06:00 +11°C° 0 mm 3 mps 737 mmHg 93%
    07:00 +12°C° 0 mm 3 mps 737 mmHg 89%
    08:00 +14°C° 0 mm 4 mps 737 mmHg 85%
    09:00 +15°C° 0.1 mm 4 mps 737 mmHg 78%
    10:00 +17°C° 0.1 mm 4 mps 737 mmHg 72%
    11:00 +18°C° 0.1 mm 4 mps 737 mmHg 65%
    12:00 +19°C° 0 mm 4 mps 737 mmHg 64%
    13:00 +19°C° 0 mm 4 mps 737 mmHg 62%
    14:00 +20°C° 0 mm 4 mps 736 mmHg 60%
    15:00 +19°C° 0.2 mm 4 mps 736 mmHg 67%
    16:00 +18°C° 0.2 mm 4 mps 736 mmHg 73%
    17:00 +17°C° 0.2 mm 3 mps 736 mmHg 79%
    18:00 +16°C° 0.3 mm 3 mps 736 mmHg 85%
    19:00 +14°C° 0.3 mm 3 mps 736 mmHg 91%
    20:00 +13°C° 0.3 mm 3 mps 736 mmHg 96%
    21:00 +13°C° 0.6 mm 3 mps 736 mmHg 97%
    22:00 +13°C° 0.6 mm 3 mps 736 mmHg 97%
    23:00 +13°C° 0.6 mm 3 mps 736 mmHg 97%
    Mostrar más